| time (UTC) | temp F | wind direction | speed knots | gust knots | rain 1hr in | rain 24hr in | rain mn in | humidity % | barometer mb |
| 20260905064610 | 60 | 0 | 0.0 | 0.0 | 0.00 | 0.00 | 0.00 | 89 | 1010.8 |
| 20260905063101 | 61 | 0 | 0.0 | 0.0 | 0.00 | 0.00 | 0.00 | 88 | 1010.7 |
| 20260905061603 | 62 | 0 | 0.0 | 0.0 | 0.00 | 0.00 | 0.00 | 88 | 1010.8 |
| 20260905060103 | 62 | 0 | 0.0 | 0.0 | 0.00 | 0.00 | 0.00 | 87 | 1010.7 |
| 20260905054559 | 63 | 0 | 0.0 | 0.0 | 0.00 | 0.00 | 0.00 | 85 | 1010.7 |
| 20260905053059 | 62 | 0 | 0.0 | 0.0 | 0.00 | 0.00 | 0.00 | 87 | 1010.8 |
| 20260905051602 | 63 | 0 | 0.0 | 0.0 | 0.00 | 0.00 | 0.00 | 86 | 1010.8 |
| 20260905050058 | 63 | 0 | 0.0 | 0.0 | 0.00 | 0.00 | 0.00 | 87 | 1010.9 |
| 20260905044601 | 62 | 0 | 0.0 | 0.0 | 0.00 | 0.00 | 0.00 | 87 | 1010.9 |
| 20260905043105 | 63 | 0 | 0.0 | 0.0 | 0.00 | 0.00 | 0.00 | 86 | 1010.8 |
| 20260905041558 | 63 | 0 | 0.0 | 0.0 | 0.00 | 0.00 | 0.00 | 86 | 1011.2 |
| 20260905040056 | 64 | 0 | 0.0 | 0.0 | 0.00 | 0.00 | 0.00 | 85 | 1011.2 |
| 20260905034550 | 65 | 0 | 0.0 | 0.0 | 0.00 | 0.00 | 0.00 | 86 | 1011.3 |
| 20260905033058 | 65 | 0 | 0.0 | 0.0 | 0.00 | 0.00 | 0.00 | 86 | 1011.4 |
| 20260905031556 | 65 | 0 | 0.0 | 0.0 | 0.00 | 0.00 | 0.00 | 86 | 1011.2 |
| 20260905030119 | 65 | 0 | 0.0 | 0.0 | 0.00 | 0.00 | 0.00 | 86 | 1010.8 |
| 20260905024604 | 65 | 0 | 0.0 | 0.0 | 0.00 | 0.00 | 0.00 | 86 | 1011.2 |
| 20260905023056 | 65 | 0 | 0.0 | 0.0 | 0.00 | 0.00 | 0.00 | 86 | 1011.1 |
| 20260905021556 | 66 | 0 | 0.0 | 0.0 | 0.00 | 0.00 | 0.00 | 86 | 1011.2 |
| 20260905020051 | 66 | 0 | 0.0 | 0.0 | 0.00 | 0.00 | 0.00 | 85 | 1011.3 |
| 20260905014604 | 66 | 0 | 0.0 | 0.0 | 0.00 | 0.00 | 0.00 | 84 | 1011.2 |
| 20260905013056 | 67 | 0 | 0.0 | 0.0 | 0.00 | 0.00 | 0.00 | 83 | 1011.1 |
| 20260905011556 | 68 | 0 | 0.0 | 0.0 | 0.00 | 0.00 | 0.00 | 84 | 1011.3 |
| 20260905004606 | 68 | 0 | 0.0 | 0.0 | 0.00 | 0.00 | 0.00 | 82 | 1011.2 |
| 20260905003055 | 68 | 0 | 0.0 | 0.0 | 0.00 | 0.00 | 0.00 | 82 | 1011.2 |
| 20260905001611 | 69 | 0 | 0.0 | 0.0 | 0.00 | 0.00 | 0.00 | 82 | 1011.1 |
| 20260905000105 | 69 | 0 | 0.0 | 0.0 | 0.00 | 0.00 | 0.00 | 80 | 1010.9 |
| 20260904234606 | 69 | 0 | 0.0 | 0.0 | 0.00 | 0.00 | 0.00 | 79 | 1010.7 |
| 20260904233056 | 70 | 0 | 0.0 | 0.0 | 0.00 | 0.00 | 0.00 | 78 | 1010.5 |
| 20260904231604 | 70 | 0 | 0.0 | 0.0 | 0.00 | 0.00 | 0.00 | 75 | 1010.3 |
| 20260904230059 | 71 | 0 | 0.0 | 0.0 | 0.00 | 0.00 | 0.00 | 77 | 1010.3 |
| 20260904224556 | 71 | 0 | 0.0 | 0.0 | 0.00 | 0.00 | 0.00 | 78 | 1010.5 |
| 20260904223100 | 72 | 0 | 0.0 | 0.0 | 0.00 | 0.00 | 0.00 | 82 | 1010.4 |
| 20260904221600 | 73 | 0 | 0.0 | 0.0 | 0.00 | 0.00 | 0.00 | 80 | 1010.2 |
| 20260904220111 | 73 | 0 | 0.0 | 0.0 | 0.00 | 0.00 | 0.00 | 77 | 1010.4 |
| 20260904214553 | 73 | 0 | 0.0 | 0.0 | 0.00 | 0.00 | 0.00 | 76 | 1010.1 |
| 20260904213054 | 74 | 0 | 0.0 | 0.0 | 0.00 | 0.00 | 0.00 | 76 | 1010.3 |
| 20260904211603 | 74 | 0 | 0.0 | 0.0 | 0.00 | 0.00 | 0.00 | 76 | 1010.3 |
| 20260904210100 | 74 | 0 | 0.0 | 0.0 | 0.00 | 0.00 | 0.00 | 73 | 1010.5 |
| 20260904204555 | 75 | 0 | 0.0 | 0.0 | 0.00 | 0.00 | 0.00 | 75 | 1010.3 |
| 20260904203059 | 76 | 0 | 0.0 | 0.0 | 0.00 | 0.00 | 0.00 | 74 | 1010.3 |
| 20260904201556 | 76 | 0 | 0.0 | 0.0 | 0.00 | 0.00 | 0.00 | 70 | 1010.4 |
| 20260904200121 | 76 | 0 | 0.0 | 0.9 | 0.00 | 0.00 | 0.00 | 66 | 1010.5 |
| 20260904194636 | 76 | 0 | 0.0 | 2.6 | 0.00 | 0.00 | 0.00 | 69 | 1010.4 |
| 20260904193057 | 76 | 0 | 0.0 | 2.6 | 0.00 | 0.00 | 0.00 | 67 | 1010.3 |
| 20260904191610 | 76 | 0 | 0.0 | 0.9 | 0.00 | 0.00 | 0.00 | 71 | 1010.4 |
| 20260904190057 | 77 | 0 | 0.0 | 2.6 | 0.00 | 0.00 | 0.00 | 69 | 1010.7 |
| 20260904184610 | 78 | 0 | 0.0 | 5.2 | 0.00 | 0.00 | 0.00 | 69 | 1010.8 |
| 20260904183056 | 80 | 83 | 0.0 | 3.5 | 0.00 | 0.00 | 0.00 | 65 | 1010.7 |
| 20260904181600 | 78 | 0 | 0.0 | 5.2 | 0.00 | 0.00 | 0.00 | 67 | 1010.5 |
| 20260904180101 | 76 | 0 | 0.0 | 0.0 | 0.00 | 0.00 | 0.00 | 70 | 1010.7 |
| 20260904174558 | 76 | 0 | 0.0 | 5.2 | 0.00 | 0.00 | 0.00 | 70 | 1010.7 |
| 20260904173103 | 76 | 0 | 0.0 | 0.0 | 0.00 | 0.00 | 0.00 | 71 | 1010.9 |
| 20260904171558 | 76 | 0 | 0.0 | 0.0 | 0.00 | 0.00 | 0.00 | 72 | 1010.9 |
| 20260904170058 | 77 | 0 | 0.0 | 4.3 | 0.00 | 0.00 | 0.00 | 68 | 1010.8 |
| 20260904164559 | 78 | 0 | 0.0 | 0.9 | 0.00 | 0.00 | 0.00 | 69 | 1010.9 |
| 20260904163051 | 76 | 0 | 0.0 | 0.0 | 0.00 | 0.00 | 0.00 | 74 | 1011.0 |
| 20260904161556 | 76 | 0 | 0.0 | 0.0 | 0.00 | 0.00 | 0.00 | 68 | 1011.1 |
| 20260904160056 | 74 | 0 | 0.0 | 0.0 | 0.00 | 0.00 | 0.00 | 74 | 1011.2 |
| 20260904154608 | 75 | 0 | 0.0 | 0.0 | 0.00 | 0.00 | 0.00 | 77 | 1011.4 |
| 20260904153053 | 74 | 0 | 0.0 | 0.0 | 0.00 | 0.00 | 0.00 | 75 | 1011.4 |
| 20260904151609 | 74 | 0 | 0.0 | 0.0 | 0.00 | 0.00 | 0.00 | 71 | 1011.5 |
| 20260904150054 | 74 | 0 | 0.0 | 0.0 | 0.00 | 0.00 | 0.00 | 71 | 1011.7 |
| 20260904144554 | 75 | 0 | 0.0 | 0.0 | 0.00 | 0.00 | 0.00 | 70 | 1011.7 |
| 20260904143102 | 74 | 0 | 0.0 | 0.9 | 0.00 | 0.00 | 0.00 | 70 | 1011.7 |
| 20260904141622 | 75 | 0 | 0.0 | 0.9 | 0.00 | 0.00 | 0.00 | 72 | 1011.6 |
| 20260904140106 | 74 | 0 | 0.0 | 0.0 | 0.00 | 0.00 | 0.00 | 74 | 1011.6 |
| 20260904134558 | 75 | 0 | 0.0 | 0.0 | 0.00 | 0.00 | 0.00 | 72 | 1011.5 |
| 20260904133114 | 73 | 0 | 0.0 | 3.5 | 0.00 | 0.00 | 0.00 | 76 | 1011.3 |
| 20260904131611 | 72 | 0 | 0.0 | 4.3 | 0.00 | 0.00 | 0.00 | 77 | 1011.7 |
| 20260904130054 | 70 | 0 | 0.0 | 7.0 | 0.00 | 0.00 | 0.00 | 79 | 1011.7 |
| 20260904124555 | 70 | 0 | 0.0 | 9.6 | 0.00 | 0.00 | 0.00 | 78 | 1011.8 |
| 20260904123106 | 71 | 273 | 0.0 | 7.8 | 0.00 | 0.00 | 0.00 | 78 | 1011.9 |
| 20260904121556 | 69 | 0 | 0.9 | 7.8 | 0.00 | 0.00 | 0.00 | 83 | 1011.8 |
| 20260904120100 | 68 | 267 | 0.0 | 6.1 | 0.00 | 0.00 | 0.00 | 83 | 1011.9 |
| 20260904114559 | 66 | 268 | 1.7 | 6.1 | 0.00 | 0.00 | 0.00 | 85 | 1011.8 |
| 20260904113100 | 65 | 0 | 0.0 | 5.2 | 0.00 | 0.00 | 0.00 | 88 | 1011.5 |
| 20260904111556 | 64 | 0 | 0.0 | 0.0 | 0.00 | 0.00 | 0.00 | 88 | 1011.5 |
| 20260904110052 | 65 | 0 | 0.0 | 0.0 | 0.00 | 0.00 | 0.00 | 87 | 1011.3 |
| 20260904104559 | 65 | 0 | 0.0 | 3.5 | 0.00 | 0.00 | 0.00 | 85 | 1011.3 |
| 20260904103056 | 66 | 0 | 0.0 | 1.7 | 0.00 | 0.00 | 0.00 | 85 | 1011.0 |
| 20260904101554 | 66 | 0 | 0.0 | 5.2 | 0.00 | 0.00 | 0.00 | 85 | 1010.9 |
| 20260904100108 | 66 | 0 | 0.0 | 6.1 | 0.00 | 0.00 | 0.00 | 84 | 1010.7 |
| 20260904094556 | 67 | 0 | 0.0 | 3.5 | 0.00 | 0.00 | 0.00 | 83 | 1010.7 |
| 20260904093057 | 66 | 0 | 0.0 | 3.5 | 0.00 | 0.00 | 0.00 | 84 | 1010.6 |
| 20260904091553 | 66 | 0 | 0.0 | 3.5 | 0.00 | 0.00 | 0.00 | 84 | 1010.6 |
| 20260904090059 | 66 | 265 | 0.0 | 3.5 | 0.00 | 0.00 | 0.00 | 84 | 1010.5 |
| 20260904084555 | 66 | 0 | 0.9 | 3.5 | 0.00 | 0.00 | 0.00 | 84 | 1010.5 |
| 20260904083053 | 67 | 0 | 0.0 | 2.6 | 0.00 | 0.00 | 0.00 | 82 | 1010.4 |
| 20260904081601 | 67 | 0 | 0.0 | 6.1 | 0.00 | 0.00 | 0.00 | 83 | 1010.3 |
| 20260904074555 | 64 | 0 | 0.0 | 0.0 | 0.00 | 0.00 | 0.00 | 88 | 1010.5 |
| 20260904073056 | 64 | 0 | 0.0 | 0.0 | 0.00 | 0.00 | 0.00 | 88 | 1010.5 |
| 20260904071602 | 64 | 0 | 0.0 | 0.0 | 0.00 | 0.00 | 0.00 | 87 | 1010.2 |